This is the latest recevied weather packets stored in our database for station/object AD7ZD. If no packets are shown the sender has not sent any weather packets the latest 10 day(s).
| Time | Temp. | Humidity | Pressure | Rain* | Wind** | Luminosity | Snow |
|---|---|---|---|---|---|---|---|
| 1778038380 | 16.67° C | 46% | 1010.6 hPa | 0 mm | - | 0 W/m² | - |
| 1778038076 | 16.67° C | 46% | 1010.6 hPa | 0 mm | - | 0 W/m² | - |
| 1778037773 | 16.67° C | 46% | 1010.4 hPa | 0 mm | - | 0 W/m² | - |
| 1778037470 | 16.67° C | 47% | 1010.4 hPa | 0 mm | - | 0 W/m² | - |
| 1778037167 | 16.67° C | 46% | 1010.2 hPa | 0 mm | - | 0 W/m² | - |
| 1778036865 | 16.67° C | 46% | 1010.4 hPa | 0 mm | - | 0 W/m² | - |
| 1778036563 | 16.67° C | 47% | 1010.1 hPa | 0 mm | - | 0 W/m² | - |
| 1778036260 | 16.67° C | 48% | 1010.4 hPa | 0 mm | - | 0 W/m² | - |
| 1778035956 | 16.67° C | 47% | 1010.1 hPa | 0 mm | - | 0 W/m² | - |
| 1778035653 | 16.67° C | 47% | 1010.2 hPa | 0 mm | - | 1 W/m² | - |
| 1778035350 | 16.67° C | 47% | 1010.2 hPa | 0 mm | - | 7 W/m² | - |
| 1778035046 | 17.22° C | 46% | 1010.2 hPa | 0 mm | - | 12 W/m² | - |
| 1778034743 | 17.22° C | 45% | 1010.2 hPa | 0 mm | - | 16 W/m² | - |
| 1778034440 | 17.22° C | 44% | 1010.1 hPa | 0 mm | - | 22 W/m² | - |
| 1778034138 | 17.78° C | 44% | 1010 hPa | 0 mm | - | 26 W/m² | - |
| 1778033836 | 17.78° C | 43% | 1010 hPa | 0 mm | - | 29 W/m² | - |
| 1778033532 | 17.78° C | 43% | 1010 hPa | 0 mm | - | 35 W/m² | - |
| 1778033229 | 17.78° C | 43% | 1009.7 hPa | 0 mm | - | 39 W/m² | - |
| 1778032927 | 18.33° C | 43% | 1009.8 hPa | 0 mm | - | 48 W/m² | - |
| 1778032624 | 18.33° C | 42% | 1009.7 hPa | 0 mm | - | 73 W/m² | - |
| 1778032322 | 18.33° C | 41% | 1009.5 hPa | 0 mm | - | 87 W/m² | - |
| 1778032019 | 17.78° C | 42% | 1009.5 hPa | 0 mm | - | 108 W/m² | - |
| 1778031714 | 18.33° C | 42% | 1009.7 hPa | 0 mm | - | 116 W/m² | - |
| 1778031412 | 18.33° C | 42% | 1010.1 hPa | 0 mm | - | 133 W/m² | - |
| 1778031109 | 18.89° C | 42% | 1010 hPa | 0 mm | - | 149 W/m² | - |
* Rain latest hour (hover to see other rain measurements)
** Current wind speed in m/s (hover to see current wind gust speed)